Location: Delmar
(42.6220°N, 73.8326°W)
Time: 04:32:11
(UTC+00:00)

Cosmos 1455 - Pass Details

Date: 29 October 2020
Orbit: 499 x 521 km, 82.5° (Epoch: 29 November)

Event Time Altitude Azimuth Distance (km) Brightness Sun altitude
Rises 22:35:35 0° 155° (SSE) 2,596 5.6 -8.7°
Reaches altitude 10° 22:38:01 10° 140° (SE) 1,721 4.6 -9.1°
Maximum altitude 22:40:57 22° 89° (E) 1,164 3.4 -9.7°
Drops below altitude 10° 22:43:55 10° 38° (NE) 1,743 4.4 -10.2°
Sets 22:46:24 0° 23° (NNE) 2,640 5.5 -10.7°
